Hourly Data Report for April 29, 2021

MIRAMICHI RCS
NEW BRUNSWICK
Current Station Operator: ECCC - MSC

47°00'34.000" N
65°27'54.000" W
33.00 m
8100989
71744
ACQ

Download Data

Hourly Data (April 2021)
Hourly Data Report for April 29, 2021
TIME
LST
Temp Definition
°C
Dew Point Definition
°C
Rel Hum Definition
%
Precip. Amount Definition
mm

Wind Dir Definition
10's deg

Wind Spd Definition
km/h
Visibility Definition
km
Stn Press Definition
kPa
Hmdx Definition


Wind Chill Definition


Weather Definition


00:00 2.6 1.4 92 LegendMM 34 3   100.59     LegendNANA
01:00 2.0 1.0 94 LegendMM 36 3   100.57     LegendNANA
02:00 1.8 0.9 94 LegendMM 9 2   100.53     LegendNANA
03:00 1.1 0.1 93 LegendMM   0   100.53     LegendNANA
04:00 0.3 -0.7 93 LegendMM 21 1   100.57     LegendNANA
05:00 -0.2 -1.0 94 LegendMM 26 3   100.58   -1 LegendNANA
06:00 1.5 0.6 93 LegendMM 4 1   100.59     LegendNANA
07:00 5.2 3.5 89 LegendMM 23 2   100.56     LegendNANA
08:00 7.8 4.2 78 LegendMM 21 3   100.57     LegendNANA
09:00 10.8 4.8 66 LegendMM 36 5   100.52     LegendNANA
10:00 12.3 4.2 58 LegendMM 35 2   100.44     LegendNANA
11:00 14.0 2.0 44 LegendMM 4 3   100.40     LegendNANA
12:00 15.9 0.9 36 LegendMM 28 13   100.34     LegendNANA
13:00 16.6 1.5 36 LegendMM 34 12   100.28     LegendNANA
14:00 15.6 3.4 44 LegendMM 8 16   100.26     LegendNANA
15:00 16.8 3.1 40 LegendMM 7 12   100.18     LegendNANA
16:00 15.1 2.9 44 LegendMM 6 23   100.14     LegendNANA
17:00 15.6 2.4 41 LegendMM 7 20   100.09     LegendNANA
18:00 14.4 1.9 43 LegendMM 9 20   100.06     LegendNANA
19:00 11.3 1.0 49 LegendMM 12 18   100.09     LegendNANA
20:00 9.1 1.3 58 LegendMM 9 8   100.10     LegendNANA
21:00 8.2 1.3 62 LegendMM 5 6   100.11     LegendNANA
22:00 6.9 1.6 69 LegendMM 7 3   100.05     LegendNANA
23:00 6.2 2.3 76 LegendMM 5 4   100.00     LegendNANA

Notes on Data Quality.

Legend

  • E = Estimated
  • M = Missing
  • NA = Not Available*
  • [empty] = Indicates an unobserved value
Date modified: